Weather History for Caldwell, NJ

Change the Weather History Date:

Saturday, November 23, 2013

  Actual Average Record
Temperature  
Mean Temperature 42 °F -  
Max Temperature 53 °F 47 °F 68 °F (1960)
Min Temperature 28 °F 30 °F 14 °F (1972)
Degree Days  
Heating Degree Days 24    
Moisture  
Dew Point 23 °F    
Average Humidity 55    
Maximum Humidity 93    
Minimum Humidity 31    
Precipitation  
Precipitation 0.00 in - - ()
Sea Level Pressure  
Sea Level Pressure 30.00 in    
Wind  
Wind Speed 13 mph (NW)    
Max Wind Speed 21 mph    
Max Gust Speed 36 mph    
Visibility 9 miles    
Events Snow    
Averages and records for this station are not official NWS values.
T = Trace of Precipitation, MM = Missing Value Source: NWS Daily Summary

Daily Weather History Graph

Daily Weather History Graph

Search for Another Location

Airport:

Trip Planner

Search our weather history database for the weather conditions in past years. The results will help you decide how hot, cold, wet, or windy it might be!

Date:

Astronomy

Nov. 23, 2013 Rise Set
Actual Time 6:53 AM EST 4:33 PM EST
Civil Twilight 6:23 AM EST 5:03 PM EST
Nautical Twilight 5:50 AM EST 5:36 PM EST
Astronomical Twilight 5:17 AM EST 6:09 PM EST
Moon 10:00 PM EST (11/23) 11:08 AM EST (11/23)
Length of Visible Light 10h 39m
Length of Day
9h 39m
Waning Gibbous, 70% of the Moon is Illuminated
Nov 23
Waning Gibbous
Nov 25
Last Quarter
Dec 2
New
Dec 9
First Quarter
Dec 17
Full

Hourly Weather History & Observations

Time (EST) Temp. Windchill Dew Point Humidity Pressure Visibility Wind Dir Wind Speed Gust Speed Precip Events Conditions
12:53 AM 53.1 °F - 43.0 °F 69% 29.95 in 10.0 mi NW 12.7 mph 19.6 mph N/A   Overcast
1:22 AM 51.8 °F - 42.8 °F 71% 29.94 in 10.0 mi NW 19.6 mph 25.3 mph N/A   Overcast
1:41 AM 48.2 °F - 35.6 °F 62% 29.94 in 10.0 mi NNW 13.8 mph 32.2 mph N/A   Mostly Cloudy
1:53 AM 48.0 °F - 36.0 °F 63% 29.97 in 10.0 mi NW 12.7 mph 25.3 mph N/A   Scattered Clouds
2:53 AM 46.0 °F 40.2 °F 34.0 °F 63% 29.99 in 10.0 mi NNW 12.7 mph 21.9 mph N/A   Partly Cloudy
3:53 AM 44.1 °F 36.8 °F 27.0 °F 51% 29.99 in 10.0 mi NW 16.1 mph 27.6 mph N/A   Clear
4:53 AM 39.9 °F 30.5 °F 25.0 °F 55% 30.02 in 10.0 mi NNW 19.6 mph 28.8 mph N/A   Clear
5:53 AM 37.9 °F 28.5 °F 24.1 °F 57% 30.05 in 10.0 mi NNW 17.3 mph 27.6 mph N/A   Clear
6:53 AM 37.0 °F 29.3 °F 21.9 °F 54% 30.07 in 10.0 mi NNW 11.5 mph 21.9 mph N/A   Clear
7:53 AM 37.0 °F 33.3 °F 24.1 °F 59% 30.08 in 10.0 mi Variable 4.6 mph - N/A   Clear
8:53 AM 39.0 °F 34.0 °F 21.0 °F 49% 30.08 in 10.0 mi NW 6.9 mph - N/A   Clear
9:53 AM 39.9 °F 32.5 °F 21.0 °F 47% 30.08 in 10.0 mi NW 12.7 mph 18.4 mph N/A   Clear
10:53 AM 42.1 °F 36.1 °F 18.0 °F 38% 30.05 in 10.0 mi NW 10.4 mph 18.4 mph N/A   Clear
11:53 AM 44.1 °F 39.0 °F 19.0 °F 37% 30.02 in 10.0 mi NNW 9.2 mph - N/A   Clear
12:53 PM 45.0 °F 39.7 °F 17.1 °F 33% 29.99 in 10.0 mi NW 10.4 mph - N/A   Clear
1:53 PM 44.1 °F 38.6 °F 15.1 °F 31% 29.97 in 10.0 mi NW 10.4 mph - N/A   Clear
2:53 PM 43.0 °F 36.0 °F 16.0 °F 34% 29.96 in 10.0 mi WNW 13.8 mph 19.6 mph N/A   Clear
3:53 PM 42.1 °F 36.6 °F 16.0 °F 35% 29.94 in 10.0 mi West 9.2 mph - N/A   Clear
4:53 PM 41.0 °F 34.7 °F 18.0 °F 40% 29.94 in 10.0 mi West 10.4 mph 18.4 mph N/A   Clear
5:53 PM 39.9 °F 35.1 °F 18.0 °F 41% 29.95 in 10.0 mi Variable 6.9 mph - N/A   Overcast
6:53 PM 39.0 °F 29.0 °F 19.9 °F 46% 29.96 in 10.0 mi NW 20.7 mph 33.4 mph N/A   Mostly Cloudy
7:24 PM 33.8 °F 22.2 °F 28.4 °F 81% 29.98 in 1.5 mi NW 20.7 mph 35.7 mph 0.00 in Snow Light Snow
7:27 PM 32.0 °F 21.2 °F 30.2 °F 93% 29.98 in 0.8 mi NW 16.1 mph 35.7 mph 0.00 in Snow Light Snow
7:35 PM 32.0 °F 23.6 °F 28.4 °F 87% 29.98 in 1.5 mi NW 10.4 mph 18.4 mph 0.00 in Snow Light Snow
7:39 PM 32.0 °F 24.2 °F 28.4 °F 87% 29.98 in 3.0 mi NW 9.2 mph 17.3 mph 0.00 in Snow Light Snow
7:53 PM 32.0 °F 26.4 °F 28.0 °F 85% 30.00 in 9.0 mi NW 5.8 mph - 0.00 in   Mostly Cloudy
8:10 PM 33.8 °F 25.3 °F 24.8 °F 70% 29.98 in 10.0 mi NW 11.5 mph 17.3 mph N/A   Mostly Cloudy
8:53 PM 33.1 °F 24.4 °F 17.1 °F 52% 30.01 in 10.0 mi NW 11.5 mph 23.0 mph N/A   Scattered Clouds
9:53 PM 32.0 °F 21.2 °F 12.9 °F 45% 30.04 in 10.0 mi NW 16.1 mph 21.9 mph N/A   Clear
10:53 PM 30.0 °F 20.0 °F 8.1 °F 40% 30.04 in 10.0 mi NW 12.7 mph 34.5 mph N/A   Clear
11:53 PM 28.0 °F 15.3 °F 8.1 °F 43% 30.06 in 10.0 mi NW 18.4 mph 28.8 mph N/A   Scattered Clouds